Location: Recife
(8.0585°S, 34.8848°W)
Time: 21:20:13
(UTC-03:00)

A-11 Canister half - Pass Details

Date: 17 April 2026
Orbit: 1515 x 1684 km, 47.2° (Epoch: 16 May)

Event Time Altitude Azimuth Distance (km) Brightness Sun altitude
Rises 11:51:54 0° 349° (N) 4,854 11.9 69.6°
Reaches altitude 10° 11:55:59 10° 3° (N) 3,893 11.6 69.2°
Maximum altitude 12:03:20 23° 52° (NE) 3,018 10.9 68.3°
Drops below altitude 10° 12:10:45 10° 99° (E) 3,946 11.1 67.3°
Sets 12:14:50 0° 113° (ESE) 4,936 11.4 66.7°
